Regional Weather Roundup
Issued by NWS

Home | Current Version | Previous Version | Graphics & Text | Print | Product List | Glossary On
Versions: 1 2 3 4 5 6 7 8 9 10 11 12 13 14 15 16 17 18 19 20 21 22 23 24 25 26 27 28 29 30 31 32 33 34 35 36 37 38 39 40 41 42 43 44 45 46 47 48 49 50
000
ASUS43 KLMK 301810
RWRKY
KENTUCKY REGIONAL WEATHER ROUNDUP
NATIONAL WEATHER SERVICE LOUISVILLE KY
200 PM EDT WED JUL 30 2014

NOTE "FAIR" INDICATES FEW OR NO CLOUDS BELOW 12,000 FEET
WITH NO SIGNIFICANT WEATHER AND/OR OBSTRUCTIONS TO VISIBILITY.

KYZ001>023-026-027-061>063-070>075-301900-
WESTERN AND SOUTH CENTRAL KENTUCKY

CITY           SKY/WX    TMP DP  RH WIND       PRES   REMARKS
PADUCAH        FAIR      80  58  46 S6        30.10F
HENDERSON      PTSUNNY   81  57  44 W8        30.08F
OWENSBORO      FAIR      80  57  45 W13       30.10F
HOPKINSVILLE   FAIR      81  54  38 W3G16     30.11F
BOWLING GREEN  PTSUNNY   80  52  37 NW3       30.10F
GLASGOW        FAIR      80  52  38 W7        30.11S
$$

KYZ024-025-028>034-038-045-046-053-301900-
NORTH CENTRAL KENTUCKY

CITY           SKY/WX    TMP DP  RH WIND       PRES   REMARKS
LOUISVILLE/SDF FAIR      80  56  43 W9        30.08F
LOUISVILLE/LOU PTSUNNY   79  54  41 VRB3      30.08F
FORT KNOX      FAIR      78  59  52 SW9       30.09F
$$

KYZ035>037-039>044-047>052-055>060-089>105-301900-
NORTHEAST KENTUCKY

CITY           SKY/WX    TMP DP  RH WIND       PRES   REMARKS
LEXINGTON      FAIR      78  58  49 SW8       30.10F
COVINGTON      PTSUNNY   78  59  51 W12G20    30.06F
FRANKFORT      FAIR      78  57  48 W7        30.08F
$$

KYZ054-064>069-076>088-106>120-301900-
SOUTHEAST KENTUCKY

CITY           SKY/WX    TMP DP  RH WIND       PRES   REMARKS
JACKSON        PTSUNNY   72  57  59 VRB5      30.12F
LONDON         PTSUNNY   75  56  51 CALM      30.12F
SOMERSET       FAIR      75  57  53 CALM      30.12F
MIDDLESBORO    FAIR      74  55  50 CALM      30.13S
MONTICELLO     FAIR      80  58  46 NE3       30.13F
$$



USA.gov is the U.S. government's official web portal to all federal, state and local government web resources and services.